Regional Weather Roundup
Issued by NWS

Home | Current Version | Previous Version | Graphics & Text | Print | Product List | Glossary On
Versions: 1 2 3 4 5 6 7 8 9 10 11 12 13 14 15 16 17 18 19 20 21 22 23 24 25 26 27 28 29 30 31 32 33 34 35 36 37 38 39 40 41 42 43 44 45 46 47 48 49 50
000
ASUS43 KDMX 261501
RWRIA

WEATHER ROUNDUP FOR IOWA
NATIONAL WEATHER SERVICE DES MOINES IA
1000 AM CDT SUN MAR 26 2017

NOTE: "FAIR" INDICATES FEW OR NO CLOUDS BELOW 12,000 FEET WITH NO
SIGNIFICANT WEATHER AND/OR OBSTRUCTIONS TO VISIBILITY.

* - THESE STATIONS ARE NOT NWS STATIONS...THUS NOT UNDER NWS
QUALITY CONTROL.  THEY ALSO DO NOT REPORT WEATHER SUCH
AS PRECIPITATION OR FOG.

IAZ001>003-012>014-020>022-031>034-043>046-261600-
   NORTHWEST IOWA

CITY           SKY/WX    TMP DP  RH WIND       PRES   REMARKS
CARROLL *      CLOUDY    39  39 100 N8        29.90R WCI  34
CHEROKEE *     CLOUDY    38  38 100 N6        29.92R WCI  34
LE MARS *      CLOUDY    41  37  87 NE8       29.93S
ORANGE CITY *  CLOUDY    37  37 100 NE5       29.92R WCI  34
SHELDON *      MIX PCPN  37  37 100 NE9       29.91R WCI  31
SIOUX CITY     CLOUDY    41  38  89 N6        29.93R
SPENCER        CLOUDY    39  37  92 NE10      29.91S WCI  32
STORM LAKE *   FOG       37  37 100 N9        29.90R VSB 3/4 WCI  31
$$

IAZ055>058-069>071-079>083-090>094-261600-
   SOUTHWEST IOWA

CITY           SKY/WX    TMP DP  RH WIND       PRES   REMARKS
ATLANTIC *     CLOUDY    41  39  93 N7        29.90S
AUDUBON *      CLOUDY    39  37  93 NW6       29.90S FOG     WCI  35
CLARINDA *     CLOUDY    43  43 100 N8        29.93R
COUNCIL BLFS * CLOUDY    41  41 100 N7        29.91R
CRESTON *      CLOUDY    41  41 100 NW6       29.90R FOG
HARLAN  *      CLOUDY    39  39 100 N7        29.93S WCI  34
LAMONI         CLOUDY    42  41  96 W13       29.89R FOG
RED OAK *      CLOUDY    43  41  93 N7        29.90S
SHENANDOAH *   CLOUDY    43  41  93 N7        29.91S
$$

IAZ047>049-059>061-072>074-084-261600-
   CENTRAL IOWA

CITY           SKY/WX    TMP DP  RH WIND       PRES   REMARKS
AMES           CLOUDY    41  41 100 N8        29.88S
ANKENY *       CLOUDY    41  39  93 N7        29.89R
BOONE *        CLOUDY    39  39 100 N9        29.87R FOG     WCI  33
CHARITON *     FOG       41  41 100 NW7       29.87R VSB 1/2
DES MOINES     CLOUDY    42  40  92 NW8       29.88R FOG
GRINNELL*      CLOUDY    42  41  98 NW9       29.86S
MARSHALLTOWN   CLOUDY    40  40 100 N8        29.86R FOG     WCI  34
NEWTON *       FOG       41  41 100 N10       29.85S VSB 1
PELLA *        CLOUDY    42  42  98 NW7       29.87S
PERRY *        CLOUDY    40  40  97 N10       29.89S FOG     WCI  34
$$

IAZ004>006-015-016-023>025-035-036-261600-
   NORTH CENTRAL IOWA

CITY           SKY/WX    TMP DP  RH WIND       PRES   REMARKS
ALGONA *       CLOUDY    37  37 100 NE10      29.90S FOG     WCI  30
CLARION *      CLOUDY    39  39 100 N9        29.88S FOG     WCI  33
ESTHERVILLE    CLOUDY    36  36 100 N12       29.90F FOG     WCI  28
FORT DODGE *   CLOUDY    39  36  87 N8        29.89F WCI  34
MASON CITY     CLOUDY    38  36  92 N8        29.90S FOG     WCI  32
FOREST CITY *  CLOUDY    36  36 100 NE7       29.89S FOG     WCI  30
WEBSTER CITY * CLOUDY    39  39 100 N9        29.86S FOG     WCI  33
IOWA FALLS *   CLOUDY    39  39  97 N7        29.89R FOG     WCI  34
$$

IAZ007>011-017>019-026>030-037>042-050>054-066-261600-
   NORTHEAST IOWA

CITY           SKY/WX    TMP DP  RH WIND       PRES   REMARKS
CEDAR RAPIDS   FOG       44  44 100 NW6       29.82R VSB 1/8
CHARLES CITY * CLOUDY    39  39 100 NE8       29.88S WCI  34
CLINTON *      FOG       51  50  96 NE6       29.82S VSB 3/4
DECORAH *      FOG       37  37 100 NE6       29.86S VSB 3/4 WCI  33
DUBUQUE        FOG       43  43 100 NE9       29.83S VSB<1/4
MONTICELLO *   FOG       45  45 100 NE6       29.82F VSB 1/4
OELWEIN *      CLOUDY    39  39 100 NE12      29.85S FOG     WCI  32
WATERLOO       FOG       40  39  97 N8        29.86S VSB 1   WCI  34
$$

IAZ064-065-067-068-078-261600-
   EAST CENTRAL IOWA

CITY           SKY/WX    TMP DP  RH WIND       PRES   REMARKS
DAVENPORT      CLOUDY    52  52 100 S7        29.82S FOG
IOWA CITY      CLOUDY    49  47  93 NE3       29.83S FOG
MUSCATINE *    FOG       50  50 100 N6        29.82S VSB 1/2
QUAD CITIES    CLOUDY    54  53  97 SW7       29.81S
$$

IAZ062-063-075>077-085>089-095>099-261600-
   SOUTHEAST IOWA

CITY           SKY/WX    TMP DP  RH WIND       PRES   REMARKS
BURLINGTON     CLOUDY    48  48 100 SW13      29.82R FOG
FAIRFIELD *    CLOUDY    45  45 100 W9        29.83S FOG
FORT MADISON * CLOUDY    48  46  93 SW9       29.84R FOG
KEOKUK *       CLOUDY    48  46  93 W10       29.84R FOG
OSKALOOSA *    CLOUDY    42  42  99 NW9       29.85S FOG
OTTUMWA        CLOUDY    45  44  97 NW9       29.84S
WASHINGTON *   FOG       48  48 100 NE3       29.83R VSB<1/4
$$

ABBREVIATIONS USED IN REMARKS
   TC - TEMPERATURES IN CELSIUS
  WCI - WIND CHILL INDEX
   HX - HEAT INDEX
  VSB - VISIBILITY
$$




USA.gov is the U.S. government's official web portal to all federal, state and local government web resources and services.